Regional Weather Roundup
Issued by NWS

Home | Current Version | Previous Version | Text Only | Print | Product List | Glossary On
Versions: 1 2 3 4 5 6 7 8 9 10 11 12 13 14 15 16 17 18 19 20 21 22 23 24 25 26 27 28 29 30 31 32 33 34 35 36 37 38 39 40 41 42 43 44 45 46 47 48 49 50
000
ASUS43 KLMK 100502
RWRKY
KENTUCKY REGIONAL WEATHER ROUNDUP
NATIONAL WEATHER SERVICE LOUISVILLE KY
100 AM EDT THU JUL 10 2014

NOTE "FAIR" INDICATES FEW OR NO CLOUDS BELOW 12,000 FEET
WITH NO SIGNIFICANT WEATHER AND/OR OBSTRUCTIONS TO VISIBILITY.

KYZ001>023-026-027-061>063-070>075-100600-
WESTERN AND SOUTH CENTRAL KENTUCKY

CITY           SKY/WX    TMP DP  RH WIND       PRES   REMARKS
PADUCAH        PTCLDY    69  65  86 W5        30.02R
HENDERSON      CLOUDY    72  66  83 W3        30.02R
OWENSBORO      PTCLDY    72  64  75 CALM      30.02S
HOPKINSVILLE   CLEAR     70  63  79 CALM      30.03S
BOWLING GREEN  NOT AVBL
GLASGOW        NOT AVBL
$$

KYZ024-025-028>034-038-045-046-053-100600-
NORTH CENTRAL KENTUCKY

CITY           SKY/WX    TMP DP  RH WIND       PRES   REMARKS
LOUISVILLE/SDF MOCLDY    76  63  64 CALM      30.02S
LOUISVILLE/LOU PTCLDY    73  62  68 CALM      30.03R
FORT KNOX      MOCLDY    66  65  96 CALM      30.03R
$$

KYZ035>037-039>044-047>052-055>060-089>105-100600-
NORTHEAST KENTUCKY

CITY           SKY/WX    TMP DP  RH WIND       PRES   REMARKS
LEXINGTON      CLEAR     69  58  67 CALM      30.05R
COVINGTON      CLOUDY    70  60  70 NW5       30.04R
FRANKFORT      NOT AVBL
$$

KYZ054-064>069-076>088-106>120-100600-
SOUTHEAST KENTUCKY

CITY           SKY/WX    TMP DP  RH WIND       PRES   REMARKS
JACKSON        CLEAR     70  59  68 CALM      30.06S
LONDON         CLEAR     66  62  87 CALM      30.07R
SOMERSET       CLEAR     64  63  94 CALM      30.07R
MIDDLESBORO    PTCLDY    67  67  97 CALM      30.08S
MONTICELLO     CLEAR     64  63  97 CALM      30.07R FOG
$$



USA.gov is the U.S. government's official web portal to all federal, state and local government web resources and services.